Date,TemperatureHighF,TemperatureAvgF,TemperatureLowF,DewpointHighF,DewpointAvgF,DewpointLowF,HumidityHigh,HumidityAvg,HumidityLow,PressureMaxIn,PressureMinIn,WindSpeedMaxMPH,WindSpeedAvgMPH,GustSpeedMaxMPH,PrecipitationSumIn
2013-4-1,53.2,38.1,28.0,40.9,30.3,12.6,91,75,44,29.87,29.61,21,1,21,0.29
2013-4-2,34.3,27.8,23.4,19.9,12.8,9.1,70,53,42,29.96,29.84,24,3,26,0.00
2013-4-3,41.4,30.4,22.8,17.6,11.8,8.6,70,47,28,30.21,29.96,23,3,23,0.00
2013-4-4,53.2,37.3,25.7,22.3,16.3,13.1,62,44,24,30.34,30.06,18,2,18,0.00
2013-4-5,53.1,40.5,31.1,27.4,23.4,19.8,69,52,31,30.07,29.79,14,2,18,0.00
2013-4-6,40.6,30.9,22.5,19.9,9.7,-7.0,64,42,26,30.39,29.99,18,3,18,0.00
2013-4-7,53.8,38.6,25.2,34.9,21.2,8.3,79,51,32,30.38,30.02,26,2,26,0.00
2013-4-8,58.8,47.2,39.4,36.9,32.7,27.7,84,59,35,30.18,30.03,13,1,13,0.00
2013-4-9,60.3,47.1,38.5,46.1,38.7,31.5,91,74,50,30.17,29.98,15,0,15,0.30
2013-4-10,54.0,46.3,41.2,46.3,41.8,37.6,91,84,71,30.10,29.96,8,0,8,0.55
2013-4-11,42.6,39.8,37.8,40.2,34.9,26.3,91,83,60,30.17,29.97,8,1,8,0.04
2013-4-12,36.0,30.7,28.2,29.1,26.7,23.4,91,85,61,30.27,29.94,5,0,5,0.06
2013-4-13,47.8,37.7,30.6,36.3,31.8,28.1,91,80,56,30.03,29.89,13,0,13,0.43
2013-4-14,50.0,40.3,35.2,36.1,30.4,26.2,86,69,45,30.31,30.00,19,1,19,0.08
2013-4-15,60.1,43.8,29.8,36.0,30.3,25.2,84,61,37,30.45,30.31,11,1,11,0.00
2013-4-16,64.6,49.2,36.1,49.4,39.7,28.0,89,71,47,30.45,30.10,37,4,37,0.07
2013-4-17,61.0,50.1,40.8,49.3,33.5,26.1,89,55,34,30.44,30.13,17,2,17,0.00
2013-4-18,61.2,48.2,34.3,39.2,30.1,25.0,70,51,38,30.52,30.21,22,1,22,0.00
2013-4-19,71.4,60.4,49.3,59.0,52.8,40.4,89,77,60,30.21,29.71,31,4,31,0.18
2013-4-20,58.5,45.1,34.0,55.3,33.3,18.5,90,66,40,30.32,29.74,26,2,26,0.16
2013-4-21,50.2,38.1,30.0,20.8,17.7,15.7,61,45,27,30.75,30.31,13,2,13,0.00
2013-4-22,54.0,39.7,29.5,28.9,22.2,10.0,81,51,31,30.82,30.67,15,1,15,0.00
2013-4-23,37.8,34.2,29.7,34.8,30.5,25.9,91,86,79,30.68,30.26,5,0,7,0.00
2013-4-24,76.8,54.7,36.5,49.6,41.1,33.6,92,66,27,30.26,29.87,20,1,20,0.00
2013-4-25,59.9,50.2,41.2,47.6,31.7,21.0,81,51,29,30.39,29.86,20,2,20,0.00
2013-4-26,58.1,46.4,35.4,36.5,29.0,21.9,70,51,37,30.51,30.38,9,0,10,0.00
2013-4-27,65.3,51.0,37.2,36.0,31.4,25.6,79,51,24,30.51,30.37,7,0,7,0.00
2013-4-28,72.7,54.2,38.5,40.5,35.2,30.5,73,51,29,30.42,30.28,7,0,12,0.00
2013-4-29,69.3,55.1,42.4,43.7,36.9,28.6,73,52,36,30.35,30.26,15,1,15,0.00
2013-4-30,73.2,58.8,48.7,39.2,32.5,27.3,56,38,28,30.46,30.34,6,0,9,0.00